This is the latest recevied weather packets stored in our database for station/object KQ4HDO. If no packets are shown the sender has not sent any weather packets the latest 10 day(s).
| Time | Temp. | Humidity | Pressure | Rain* | Wind** | Luminosity | Snow |
|---|---|---|---|---|---|---|---|
| 1777371603 | 13.33° C | 77% | 1013.4 hPa | 0 mm | - | - | - |
| 1777370103 | 13.89° C | 79% | 1013 hPa | 0 mm | - | - | - |
| 1777368903 | 13.89° C | 80% | 1012.9 hPa | 0 mm | - | - | - |
| 1777366503 | 13.89° C | 79% | 1012.4 hPa | 0 mm | - | - | - |
| 1777364403 | 14.44° C | 78% | 1012.2 hPa | 0 mm | - | - | - |
| 1777363503 | 14.44° C | 78% | 1012.1 hPa | 0 mm | - | - | - |
| 1777363203 | 14.44° C | 78% | 1012.2 hPa | 0 mm | - | - | - |
| 1777362003 | 14.44° C | 78% | 1011.6 hPa | 0 mm | - | - | - |
| 1777361838 | 14.44° C | 79% | 1011.5 hPa | 0 mm | - | - | - |
| 1777361103 | 14.44° C | 79% | 1011.4 hPa | 0 mm | - | - | - |
| 1777360803 | 14.44° C | 79% | 1011.3 hPa | 0 mm | - | - | - |
| 1777360503 | 14.44° C | 78% | 1011.2 hPa | 0 mm | - | - | - |
| 1777358703 | 15° C | 78% | 1011 hPa | 0 mm | - | - | - |
| 1777357203 | 15.56° C | 77% | 1011 hPa | 0 mm | - | - | - |
| 1777356303 | 15.56° C | 77% | 1011 hPa | 0 mm | - | - | - |
| 1777355104 | 16.11° C | 79% | 1010.8 hPa | 0 mm | - | - | - |
| 1777353437 | 16.11° C | 80% | 1009.8 hPa | 0 mm | - | - | - |
| 1777352404 | 16.67° C | 81% | 1009.2 hPa | 0 mm | - | - | - |
| 1777350003 | 17.78° C | 78% | 1008.7 hPa | 0 mm | - | - | - |
| 1777349403 | 17.78° C | 77% | 1008.6 hPa | 0 mm | - | - | - |
| 1777348203 | 18.89° C | 80% | 1008.1 hPa | 0 mm | - | - | - |
| 1777347903 | 18.33° C | 82% | 1007.9 hPa | 0 mm | - | - | - |
| 1777346403 | 17.78° C | 87% | 1007.4 hPa | 0 mm | - | - | - |
| 1777344003 | 17.22° C | 92% | 1006 hPa | 0 mm | - | - | - |
| 1777343703 | 17.22° C | 93% | 1005.8 hPa | 0 mm | - | - | - |
* Rain latest hour (hover to see other rain measurements)
** Current wind speed in m/s (hover to see current wind gust speed)